Location: Unspecified
(58.7730°N, 5.8460°E)
Time: 23:21:24
(UTC+02:00)

CZ-3 Stage 3 - Visible Passes

Search period start: 02 September 2014 00:00
Search period end: 12 September 2014 00:00
Orbit: 411 x 34838 km, 30.7° (Epoch: 01 September)

Date Brightness Start Highest point End Pass type
(mag) Time Alt. Az. Time Alt. Az. Time Alt. Az.
02 Sep 8.2 07:05:40 10° SSW 08:31:50 20° S 08:47:23 10° SE visible
05 Sep 8.1 06:56:18 10° SSW 08:30:12 21° S 08:45:36 10° SE visible
06 Sep 8.8 04:24:37 10° SE 04:31:32 10° SE 04:37:32 10° SE visible
08 Sep 8.1 06:46:47 10° SSW 08:28:24 22° S 08:43:39 10° SE visible
09 Sep 8.7 03:54:55 10° SE 04:29:52 12° SE 04:49:39 10° SE visible
11 Sep 8.0 06:37:03 10° SSW 08:26:27 23° S 08:41:32 10° SE visible
